This demonstration page uses our WeatherBlox Daily Observations layout. Learn more.

Left ArrowRight Arrow

39.92423, -83.80882

Hourly Observations for October 14, 2020

Temp ( °F °C ) Dew Point ( °F °C ) Humidity (%) Winds ( mph kmh ) Pressure ( in mb ) Visibility ( mi km ) Precip ( " mm )
12:56 am 00:56 Clear 52 11.1 40 4.4 64 64 SSW 7 11 30.04 1017 10 16.0934 0 0
1:56 am 01:56 Clear 50 10 41 5 71 71 SSW 6 9 30.04 1017 10 16.0934 0 0
2:56 am 02:56 Clear 48 8.9 41 5 77 77 SW 8 13 30.05 1018 10 16.0934 0 0
3:56 am 03:56 Clear 46 7.8 42 5.6 86 86 SW 7 11 30.05 1018 10 16.0934 0 0
4:56 am 04:56 Clear 48 8.9 42 5.6 80 80 WSW 7 11 30.05 1018 10 16.0934 0 0
5:56 am 05:56 Clear 46 7.8 42 5.6 86 86 W 6 9 30.06 1018 10 16.0934 0 0
6:56 am 06:56 Clear 44 6.7 41 5 89 89 Calm 30.08 1019 10 16.0934 0 0
7:56 am 07:56 Sunny 43 6.1 43 6.1 100 100 SW 5 7 30.08 1019 10 16.0934 0 0
8:56 am 08:56 Sunny 49 9.4 46 7.8 90 90 SSW 3 6 30.09 1019 10 16.0934 0 0
9:56 am 09:56 Sunny 53 11.7 44 6.7 72 72 SSW 3 6 30.09 1019 10 16.0934 0 0
10:56 am 10:56 Sunny 59 15 45 7.2 60 60 SE 6 9 30.08 1019 10 16.0934 0 0
11:56 am 11:56 Sunny 64 17.8 45 7.2 50 50 VRB 6 9 30.06 1018 10 16.0934 0 0
12:56 pm 12:56 Sunny 68 20 43 6.1 40 40 SSW 7 11 30.02 1017 10 16.0934 0 0
1:56 pm 13:56 Sunny 72 22.2 44 6.7 37 37 VRB 6 9 29.99 1016 10 16.0934 0 0
2:56 pm 14:56 Sunny 73 22.8 44 6.7 35 35 S 13 20 29.94 1014 10 16.0934 0 0
3:56 pm 15:56 Sunny 73 22.8 45 7.2 37 37 S 8 13 29.91 1013 10 16.0934 0 0
4:56 pm 16:56 Sunny 71 21.7 44 6.7 38 38 S 8 13 29.88 1012 10 16.0934 0 0
5:56 pm 17:56 Sunny 72 22.2 45 7.2 38 38 S 12 19 29.86 1011 10 16.0934 0 0
6:56 pm 18:56 Sunny 68 20 45 7.2 44 44 S 8 13 29.85 1011 10 16.0934 0 0
7:56 pm 19:56 Clear 65 18.3 46 7.8 51 51 SSE 12 19 29.84 1011 10 16.0934 0 0
8:56 pm 20:56 Clear 63 17.2 47 8.3 56 56 S 13 20 29.81 1010 10 16.0934 0 0
9:56 pm 21:56 Clear 62 16.7 46 7.8 56 56 S 12 19 29.8 1009 10 16.0934 0 0
10:56 pm 22:56 Clear 63 17.2 46 7.8 54 54 S 12 19 29.78 1009 10 16.0934 0 0
11:56 pm 23:56 Clear 64 17.8 46 7.8 52 52 SSW 10 17 29.77 1008 10 16.0934 0 0

Powered by AerisWeather